Time,TemperatureF,DewpointF,PressureIn,WindDirection,WindDirectionDegrees,WindSpeedMPH,WindSpeedGustMPH,Humidity,HourlyPrecipIn,Conditions,Clouds,dailyrainin,SolarRadiationWatts/m^2,SoftwareType,DateUTC
2013-10-11 00:01:00,64.6,63.1,29.90,ESE,109,9.2,9.2,95,0.00,RA,FEW,0.00,0.0,WeatherDisplay:10.37,2013-10-10 22:01:00,
2013-10-11 00:06:00,64.5,63.0,29.90,ESE,110,11.5,11.5,95,0.00,RA,FEW,0.00,0.0,WeatherDisplay:10.37,2013-10-10 22:06:00,
2013-10-11 00:11:00,64.4,62.9,29.90,ESE,113,6.9,6.9,95,0.00,RA,FEW,0.00,0.0,WeatherDisplay:10.37,2013-10-10 22:11:00,
2013-10-11 00:16:00,64.4,62.9,29.90,South,178,9.2,9.2,95,0.00,CLR,FEW,0.00,0.0,WeatherDisplay:10.37,2013-10-10 22:16:00,
2013-10-11 00:21:00,64.2,62.7,29.90,ESE,111,6.0,6.0,95,0.00,CLR,FEW,0.00,0.0,WeatherDisplay:10.37,2013-10-10 22:21:00,
2013-10-11 00:26:00,64.2,62.7,29.90,WSW,254,8.1,8.1,95,0.00,CLR,FEW,0.00,0.0,WeatherDisplay:10.37,2013-10-10 22:26:00,
2013-10-11 00:31:00,64.2,62.7,29.90,SSE,163,9.2,9.2,95,0.00,CLR,FEW,0.00,0.0,WeatherDisplay:10.37,2013-10-10 22:31:00,
2013-10-11 00:36:00,64.2,62.7,29.90,South,177,8.1,8.1,95,0.00,CLR,FEW,0.00,0.0,WeatherDisplay:10.37,2013-10-10 22:36:00,
2013-10-11 00:41:00,64.2,62.7,29.90,ESE,117,8.1,8.1,95,0.00,CLR,FEW,0.00,0.0,WeatherDisplay:10.37,2013-10-10 22:41:00,
2013-10-11 00:46:00,64.1,62.3,29.90,South,169,9.2,9.2,94,0.00,CLR,FEW,0.00,0.0,WeatherDisplay:10.37,2013-10-10 22:46:00,
2013-10-11 00:51:00,64.2,62.7,29.90,SSE,152,11.0,11.0,95,0.00,CLR,FEW,0.00,0.0,WeatherDisplay:10.37,2013-10-10 22:51:00,
2013-10-11 00:56:00,64.3,62.5,29.90,ESE,111,6.9,6.9,94,0.00,CLR,FEW,0.00,0.0,WeatherDisplay:10.37,2013-10-10 22:56:00,
2013-10-11 01:01:00,64.4,62.6,29.90,ESE,121,8.1,8.1,94,0.00,CLR,FEW,0.00,0.0,WeatherDisplay:10.37,2013-10-10 23:01:00,
2013-10-11 01:06:00,64.3,62.5,29.90,SSE,150,5.8,5.8,94,0.00,CLR,FEW,0.00,0.0,WeatherDisplay:10.37,2013-10-10 23:06:00,
2013-10-11 01:11:00,64.6,62.8,29.90,SSE,150,9.2,9.2,94,0.00,CLR,FEW,0.00,0.0,WeatherDisplay:10.37,2013-10-10 23:11:00,
2013-10-11 01:16:00,64.6,62.8,29.90,SE,128,5.8,5.8,94,0.00,CLR,FEW,0.00,0.0,WeatherDisplay:10.37,2013-10-10 23:16:00,
2013-10-11 01:21:00,64.8,63.0,29.91,SW,214,5.8,5.8,94,0.00,CLR,FEW,0.00,0.0,WeatherDisplay:10.37,2013-10-10 23:21:00,
2013-10-11 01:26:00,65.0,63.2,29.91,SE,132,8.1,8.1,94,0.00,CLR,FEW,0.00,0.0,WeatherDisplay:10.37,2013-10-10 23:26:00,
2013-10-11 01:31:00,65.0,63.2,29.91,SSE,161,10.0,10.0,94,0.00,CLR,FEW,0.00,0.0,WeatherDisplay:10.37,2013-10-10 23:31:00,
2013-10-11 01:36:00,64.9,63.1,29.91,South,174,6.9,6.9,94,0.00,CLR,FEW,0.00,0.0,WeatherDisplay:10.37,2013-10-10 23:36:00,
2013-10-11 01:41:00,65.0,63.2,29.91,SSE,147,5.8,5.8,94,0.00,CLR,FEW,0.00,0.0,WeatherDisplay:10.37,2013-10-10 23:41:00,
2013-10-11 01:46:00,65.2,63.4,29.90,ENE,76,11.5,11.5,94,0.00,CLR,FEW,0.00,0.0,WeatherDisplay:10.37,2013-10-10 23:46:00,
2013-10-11 01:51:00,65.1,63.3,29.91,SSE,164,6.0,6.0,94,0.00,CLR,FEW,0.00,0.0,WeatherDisplay:10.37,2013-10-10 23:51:00,
2013-10-11 01:56:00,65.2,63.4,29.91,SSE,148,4.0,4.0,94,0.00,CLR,FEW,0.00,0.0,WeatherDisplay:10.37,2013-10-10 23:56:00,
2013-10-11 02:01:00,65.2,63.4,29.91,South,174,8.1,8.1,94,0.00,CLR,FEW,0.00,0.0,WeatherDisplay:10.37,2013-10-11 00:01:00,
2013-10-11 02:06:00,65.3,63.5,29.91,East,101,4.6,4.6,94,0.00,CLR,FEW,0.00,0.0,WeatherDisplay:10.37,2013-10-11 00:06:00,
2013-10-11 02:11:00,65.2,63.4,29.91,East,98,6.9,6.9,94,0.00,CLR,FEW,0.00,0.0,WeatherDisplay:10.37,2013-10-11 00:11:00,
2013-10-11 02:16:00,65.1,63.3,29.90,WSW,241,8.1,8.1,94,0.00,CLR,FEW,0.00,0.0,WeatherDisplay:10.37,2013-10-11 00:16:00,
2013-10-11 02:21:00,65.0,63.2,29.91,SSW,206,11.5,11.5,94,0.00,CLR,FEW,0.00,0.0,WeatherDisplay:10.37,2013-10-11 00:21:00,
2013-10-11 02:26:00,65.1,63.3,29.91,SE,124,15.0,15.0,94,0.00,CLR,FEW,0.00,0.0,WeatherDisplay:10.37,2013-10-11 00:26:00,
2013-10-11 02:31:00,65.2,63.4,29.91,SE,141,6.0,15.0,94,0.00,CLR,FEW,0.00,0.0,WeatherDisplay:10.37,2013-10-11 00:31:00,
2013-10-11 02:36:00,65.1,63.3,29.91,SE,132,8.1,8.1,94,0.00,CLR,FEW,0.00,0.0,WeatherDisplay:10.37,2013-10-11 00:36:00,
2013-10-11 02:41:00,65.1,63.3,29.91,ESE,111,8.1,8.1,94,0.00,CLR,FEW,0.00,0.0,WeatherDisplay:10.37,2013-10-11 00:41:00,
2013-10-11 02:46:00,65.0,63.2,29.91,South,181,6.9,6.9,94,0.00,CLR,FEW,0.00,0.0,WeatherDisplay:10.37,2013-10-11 00:46:00,
2013-10-11 02:51:00,65.1,63.3,29.91,ESE,113,6.9,6.9,94,0.00,CLR,FEW,0.00,0.0,WeatherDisplay:10.37,2013-10-11 00:51:00,
2013-10-11 02:56:00,65.1,63.3,29.91,ESE,105,6.0,6.0,94,0.00,CLR,FEW,0.00,0.0,WeatherDisplay:10.37,2013-10-11 00:56:00,
2013-10-11 03:01:00,65.3,63.5,29.91,ESE,108,5.8,5.8,94,0.00,CLR,FEW,0.00,0.0,WeatherDisplay:10.37,2013-10-11 01:01:00,
2013-10-11 03:06:00,65.4,63.6,29.91,ESE,105,5.0,5.0,94,0.00,CLR,FEW,0.00,0.0,WeatherDisplay:10.37,2013-10-11 01:06:00,
2013-10-11 03:11:00,65.5,63.7,29.91,ESE,107,3.5,3.5,94,0.00,CLR,FEW,0.00,0.0,WeatherDisplay:10.37,2013-10-11 01:11:00,
2013-10-11 03:16:00,65.5,63.7,29.91,SE,146,4.6,4.6,94,0.00,CLR,FEW,0.00,0.0,WeatherDisplay:10.37,2013-10-11 01:16:00,
2013-10-11 03:21:00,65.6,63.8,29.91,SE,125,5.8,5.8,94,0.00,CLR,FEW,0.00,0.0,WeatherDisplay:10.37,2013-10-11 01:21:00,
2013-10-11 03:26:00,65.6,63.8,29.91,SE,142,5.8,5.8,94,0.00,CLR,FEW,0.00,0.0,WeatherDisplay:10.37,2013-10-11 01:26:00,
2013-10-11 03:31:00,65.7,63.9,29.91,ESE,112,6.9,6.9,94,0.00,CLR,FEW,0.00,0.0,WeatherDisplay:10.37,2013-10-11 01:31:00,
2013-10-11 03:36:00,65.7,63.9,29.91,ESE,114,4.6,4.6,94,0.00,CLR,FEW,0.00,0.0,WeatherDisplay:10.37,2013-10-11 01:36:00,
2013-10-11 03:41:00,65.7,63.9,29.90,SSE,162,5.8,5.8,94,0.00,CLR,FEW,0.00,0.0,WeatherDisplay:10.37,2013-10-11 01:41:00,
2013-10-11 03:46:00,65.6,63.8,29.90,ESE,117,3.5,3.5,94,0.00,CLR,FEW,0.00,0.0,WeatherDisplay:10.37,2013-10-11 01:46:00,
2013-10-11 03:51:00,65.4,63.6,29.90,SSE,153,8.0,8.0,94,0.00,CLR,FEW,0.00,0.0,WeatherDisplay:10.37,2013-10-11 01:51:00,
2013-10-11 03:56:00,65.4,63.6,29.90,SE,137,4.6,4.6,94,0.00,CLR,FEW,0.00,0.0,WeatherDisplay:10.37,2013-10-11 01:56:00,
2013-10-11 04:01:00,65.4,63.6,29.89,SE,128,5.8,5.8,94,0.00,CLR,FEW,0.00,0.0,WeatherDisplay:10.37,2013-10-11 02:01:00,
2013-10-11 04:06:00,65.4,63.6,29.89,SSE,150,8.1,8.1,94,0.00,CLR,FEW,0.00,0.0,WeatherDisplay:10.37,2013-10-11 02:06:00,
2013-10-11 04:11:00,65.4,63.6,29.89,ESE,112,8.1,8.1,94,0.00,CLR,FEW,0.00,0.0,WeatherDisplay:10.37,2013-10-11 02:11:00,
2013-10-11 04:16:00,65.4,63.6,29.89,ESE,102,5.8,5.8,94,0.00,CLR,FEW,0.00,0.0,WeatherDisplay:10.37,2013-10-11 02:16:00,
2013-10-11 04:21:00,65.4,63.6,29.89,SE,137,5.8,5.8,94,0.00,CLR,FEW,0.00,0.0,WeatherDisplay:10.37,2013-10-11 02:21:00,
2013-10-11 04:26:00,65.3,63.5,29.89,SE,126,4.6,4.6,94,0.00,CLR,FEW,0.00,0.0,WeatherDisplay:10.37,2013-10-11 02:26:00,
2013-10-11 04:31:00,65.3,63.5,29.89,SE,128,3.5,3.5,94,0.00,CLR,FEW,0.00,0.0,WeatherDisplay:10.37,2013-10-11 02:31:00,
2013-10-11 04:36:00,65.2,63.4,29.89,ESE,118,6.9,6.9,94,0.00,CLR,FEW,0.00,0.0,WeatherDisplay:10.37,2013-10-11 02:36:00,
2013-10-11 04:41:00,65.2,63.4,29.89,SE,134,4.6,4.6,94,0.00,CLR,FEW,0.00,0.0,WeatherDisplay:10.37,2013-10-11 02:41:00,
2013-10-11 04:46:00,65.2,63.4,29.90,ESE,107,5.8,5.8,94,0.00,CLR,FEW,0.00,0.0,WeatherDisplay:10.37,2013-10-11 02:46:00,
2013-10-11 04:51:00,65.3,63.5,29.90,ESE,115,9.2,9.2,94,0.00,CLR,FEW,0.00,0.0,WeatherDisplay:10.37,2013-10-11 02:51:00,
2013-10-11 04:56:00,65.4,63.6,29.90,ESE,121,5.8,5.8,94,0.00,CLR,FEW,0.00,0.0,WeatherDisplay:10.37,2013-10-11 02:56:00,
2013-10-11 05:01:00,65.4,63.6,29.90,SSE,152,5.8,5.8,94,0.00,CLR,FEW,0.00,0.0,WeatherDisplay:10.37,2013-10-11 03:01:00,
2013-10-11 05:06:00,65.4,63.6,29.90,SW,215,3.5,3.5,94,0.00,CLR,FEW,0.00,0.0,WeatherDisplay:10.37,2013-10-11 03:06:00,
2013-10-11 05:11:00,65.3,63.5,29.91,SE,136,5.8,5.8,94,0.00,CLR,FEW,0.00,0.0,WeatherDisplay:10.37,2013-10-11 03:11:00,
2013-10-11 05:16:00,65.4,63.6,29.90,SSE,150,4.6,4.6,94,0.00,CLR,FEW,0.00,0.0,WeatherDisplay:10.37,2013-10-11 03:16:00,
2013-10-11 05:21:00,65.3,63.5,29.90,East,98,4.0,4.0,94,0.00,CLR,FEW,0.00,0.0,WeatherDisplay:10.37,2013-10-11 03:21:00,
2013-10-11 05:26:00,65.2,63.4,29.90,ESE,111,3.5,3.5,94,0.00,CLR,FEW,0.00,0.0,WeatherDisplay:10.37,2013-10-11 03:26:00,
2013-10-11 05:31:00,65.2,63.4,29.90,SSE,158,4.6,4.6,94,0.00,CLR,FEW,0.00,0.0,WeatherDisplay:10.37,2013-10-11 03:31:00,
2013-10-11 05:36:00,65.3,63.5,29.90,South,187,5.8,5.8,94,0.00,CLR,FEW,0.00,0.0,WeatherDisplay:10.37,2013-10-11 03:36:00,
2013-10-11 05:41:00,65.3,63.5,29.90,SSE,162,3.5,3.5,94,0.00,CLR,FEW,0.00,0.0,WeatherDisplay:10.37,2013-10-11 03:41:00,
2013-10-11 05:46:00,65.5,63.7,29.90,SE,141,5.8,5.8,94,0.00,CLR,FEW,0.00,0.0,WeatherDisplay:10.37,2013-10-11 03:46:00,
2013-10-11 05:51:00,65.4,63.6,29.90,SE,133,3.5,3.5,94,0.00,CLR,FEW,0.00,0.0,WeatherDisplay:10.37,2013-10-11 03:51:00,
2013-10-11 05:56:00,65.4,63.6,29.90,SSE,147,5.8,5.8,94,0.00,CLR,FEW,0.00,0.0,WeatherDisplay:10.37,2013-10-11 03:56:00,
2013-10-11 06:01:00,65.4,63.6,29.90,SSE,163,2.3,2.3,94,0.00,CLR,FEW,0.00,0.0,WeatherDisplay:10.37,2013-10-11 04:01:00,
2013-10-11 06:06:00,65.4,63.6,29.90,ESE,115,2.3,2.3,94,0.00,CLR,FEW,0.00,0.0,WeatherDisplay:10.37,2013-10-11 04:06:00,
2013-10-11 06:11:00,65.2,63.4,29.90,SSE,150,5.0,5.0,94,0.00,CLR,FEW,0.00,0.0,WeatherDisplay:10.37,2013-10-11 04:11:00,
2013-10-11 06:16:00,65.1,63.3,29.90,ESE,122,8.1,8.1,94,0.00,CLR,FEW,0.00,0.0,WeatherDisplay:10.37,2013-10-11 04:16:00,
2013-10-11 06:21:00,65.2,63.4,29.90,South,169,5.0,5.0,94,0.00,CLR,FEW,0.00,0.0,WeatherDisplay:10.37,2013-10-11 04:21:00,
2013-10-11 06:26:00,65.4,63.6,29.90,East,97,6.9,6.9,94,0.00,CLR,FEW,0.00,0.0,WeatherDisplay:10.37,2013-10-11 04:26:00,
2013-10-11 06:31:00,65.5,63.7,29.90,ESE,103,2.3,2.3,94,0.00,CLR,FEW,0.00,0.0,WeatherDisplay:10.37,2013-10-11 04:31:00,
2013-10-11 06:36:00,65.6,63.8,29.90,SE,129,5.8,5.8,94,0.00,CLR,FEW,0.00,0.0,WeatherDisplay:10.37,2013-10-11 04:36:00,
2013-10-11 06:41:00,65.6,63.8,29.90,SSE,166,5.8,5.8,94,0.00,CLR,FEW,0.00,0.0,WeatherDisplay:10.37,2013-10-11 04:41:00,
2013-10-11 06:46:00,65.6,63.8,29.90,ESE,104,8.1,8.1,94,0.00,CLR,FEW,0.00,0.0,WeatherDisplay:10.37,2013-10-11 04:46:00,
2013-10-11 06:51:00,65.6,63.8,29.90,SE,124,11.0,11.0,94,0.00,CLR,FEW,0.00,0.0,WeatherDisplay:10.37,2013-10-11 04:51:00,
2013-10-11 06:56:00,65.7,63.9,29.90,ESE,103,6.9,6.9,94,0.00,CLR,FEW,0.00,0.0,WeatherDisplay:10.37,2013-10-11 04:56:00,
2013-10-11 07:01:00,65.7,63.9,29.90,SE,125,5.8,5.8,94,0.00,CLR,FEW,0.00,0.0,WeatherDisplay:10.37,2013-10-11 05:01:00,
2013-10-11 07:06:00,65.7,63.9,29.90,ESE,117,4.6,4.6,94,0.00,OVC,FEW,0.00,0.0,WeatherDisplay:10.37,2013-10-11 05:06:00,
2013-10-11 07:11:00,65.6,63.8,29.90,ESE,110,7.0,7.0,94,0.00,OVC,FEW,0.00,0.0,WeatherDisplay:10.37,2013-10-11 05:11:00,
2013-10-11 07:16:00,65.6,63.8,29.90,SE,132,4.6,4.6,94,0.00,OVC,FEW,0.00,0.0,WeatherDisplay:10.37,2013-10-11 05:16:00,
2013-10-11 07:21:00,65.6,63.8,29.90,East,97,8.0,8.0,94,0.00,OVC,FEW,0.00,0.0,WeatherDisplay:10.37,2013-10-11 05:21:00,
2013-10-11 07:26:00,65.6,63.8,29.90,SE,136,10.4,10.4,94,0.00,OVC,FEW,0.00,0.0,WeatherDisplay:10.37,2013-10-11 05:26:00,
2013-10-11 07:31:00,65.7,63.9,29.91,SSE,147,11.5,11.5,94,0.00,OVC,FEW,0.00,0.0,WeatherDisplay:10.37,2013-10-11 05:31:00,
2013-10-11 07:36:00,65.5,63.4,29.91,East,80,11.5,11.5,93,0.00,OVC,FEW,0.00,0.0,WeatherDisplay:10.37,2013-10-11 05:36:00,
2013-10-11 07:41:00,65.7,63.6,29.91,SSE,153,11.5,11.5,93,0.00,OVC,FEW,0.00,0.0,WeatherDisplay:10.37,2013-10-11 05:41:00,
2013-10-11 07:46:00,65.9,63.8,29.91,ESE,111,11.5,11.5,93,0.00,OVC,FEW,0.00,0.0,WeatherDisplay:10.37,2013-10-11 05:46:00,
2013-10-11 07:51:00,65.9,63.8,29.91,SE,130,11.5,11.5,93,0.00,OVC,FEW,0.00,0.0,WeatherDisplay:10.37,2013-10-11 05:51:00,
2013-10-11 07:56:00,66.0,63.9,29.91,SE,136,11.5,11.5,93,0.00,OVC,FEW,0.00,0.0,WeatherDisplay:10.37,2013-10-11 05:56:00,
2013-10-11 08:01:00,66.1,64.0,29.91,East,90,11.5,11.5,93,0.00,OVC,FEW,0.00,0.0,WeatherDisplay:10.37,2013-10-11 06:01:00,
2013-10-11 08:06:00,66.0,63.9,29.92,East,90,9.2,9.2,93,0.00,OVC,FEW,0.00,0.0,WeatherDisplay:10.37,2013-10-11 06:06:00,
2013-10-11 08:11:00,66.0,63.9,29.92,SE,139,9.2,9.2,93,0.00,OVC,FEW,0.00,0.0,WeatherDisplay:10.37,2013-10-11 06:11:00,
2013-10-11 08:16:00,66.0,63.9,29.92,SE,128,8.1,8.1,93,0.00,OVC,FEW,0.00,0.0,WeatherDisplay:10.37,2013-10-11 06:16:00,
2013-10-11 08:21:00,66.0,63.9,29.92,South,169,6.9,6.9,93,0.00,OVC,FEW,0.00,0.0,WeatherDisplay:10.37,2013-10-11 06:21:00,
2013-10-11 08:26:00,66.2,64.1,29.92,SSE,168,10.0,10.0,93,0.00,OVC,FEW,0.00,0.0,WeatherDisplay:10.37,2013-10-11 06:26:00,
2013-10-11 08:31:00,66.1,64.0,29.92,ESE,123,13.8,13.8,93,0.00,OVC,FEW,0.00,0.0,WeatherDisplay:10.37,2013-10-11 06:31:00,
2013-10-11 08:36:00,66.3,64.2,29.92,SE,129,9.2,9.2,93,0.00,OVC,FEW,0.00,0.0,WeatherDisplay:10.37,2013-10-11 06:36:00,
2013-10-11 08:41:00,66.5,64.4,29.92,East,101,9.2,9.2,93,0.00,OVC,FEW,0.00,0.0,WeatherDisplay:10.37,2013-10-11 06:41:00,
2013-10-11 08:46:00,66.5,64.1,29.92,East,96,13.8,13.8,92,0.00,OVC,FEW,0.00,0.0,WeatherDisplay:10.37,2013-10-11 06:46:00,
2013-10-11 08:51:00,66.6,64.5,29.92,ESE,112,11.5,11.5,93,0.00,OVC,FEW,0.00,0.0,WeatherDisplay:10.37,2013-10-11 06:51:00,
2013-10-11 08:56:00,66.6,64.2,29.92,ENE,69,4.6,4.6,92,0.00,OVC,FEW,0.00,0.0,WeatherDisplay:10.37,2013-10-11 06:56:00,
2013-10-11 09:01:00,66.7,64.3,29.92,ESE,115,6.9,6.9,92,0.00,OVC,FEW,0.00,0.0,WeatherDisplay:10.37,2013-10-11 07:01:00,
2013-10-11 09:06:00,66.9,64.5,29.92,SE,146,6.9,6.9,92,0.00,OVC,FEW,0.00,0.0,WeatherDisplay:10.37,2013-10-11 07:06:00,
2013-10-11 09:11:00,67.1,64.7,29.92,SE,143,5.8,5.8,92,0.00,OVC,FEW,0.00,0.0,WeatherDisplay:10.37,2013-10-11 07:11:00,
2013-10-11 09:16:00,67.0,64.6,29.93,SE,128,9.0,9.0,92,0.00,OVC,FEW,0.00,0.0,WeatherDisplay:10.37,2013-10-11 07:16:00,
2013-10-11 09:21:00,66.9,64.2,29.93,SE,127,8.1,8.1,91,0.00,OVC,FEW,0.00,0.0,WeatherDisplay:10.37,2013-10-11 07:21:00,
2013-10-11 09:26:00,66.9,64.2,29.93,ESE,115,8.1,8.1,91,0.00,OVC,FEW,0.00,0.0,WeatherDisplay:10.37,2013-10-11 07:26:00,
2013-10-11 09:31:00,67.0,64.3,29.93,SE,137,5.0,5.1,91,0.00,OVC,FEW,0.00,0.0,WeatherDisplay:10.37,2013-10-11 07:31:00,
2013-10-11 09:36:00,67.2,64.8,29.94,SSE,156,9.2,9.2,92,0.00,OVC,FEW,0.00,0.0,WeatherDisplay:10.37,2013-10-11 07:36:00,
2013-10-11 09:41:00,67.4,64.7,29.94,SE,129,6.9,6.9,91,0.00,OVC,FEW,0.00,0.0,WeatherDisplay:10.37,2013-10-11 07:41:00,
2013-10-11 09:46:00,67.5,64.8,29.94,ESE,120,9.2,9.2,91,0.00,OVC,FEW,0.00,0.0,WeatherDisplay:10.37,2013-10-11 07:46:00,
2013-10-11 09:51:00,67.5,64.8,29.94,SSE,160,11.5,11.5,91,0.00,OVC,FEW,0.00,0.0,WeatherDisplay:10.37,2013-10-11 07:51:00,
2013-10-11 09:56:00,67.5,64.8,29.94,ESE,121,9.2,9.2,91,0.00,OVC,FEW,0.00,0.0,WeatherDisplay:10.37,2013-10-11 07:56:00,
2013-10-11 10:01:00,67.7,65.0,29.94,SE,137,11.5,11.5,91,0.00,OVC,FEW,0.00,0.0,WeatherDisplay:10.37,2013-10-11 08:01:00,
2013-10-11 10:06:00,67.9,65.2,29.95,East,94,8.1,8.1,91,0.00,OVC,FEW,0.00,0.0,WeatherDisplay:10.37,2013-10-11 08:06:00,
2013-10-11 10:11:00,68.0,65.3,29.95,ESE,113,5.8,5.8,91,0.00,OVC,FEW,0.00,0.0,WeatherDisplay:10.37,2013-10-11 08:11:00,
2013-10-11 10:16:00,68.1,65.4,29.95,SE,142,8.1,8.1,91,0.00,OVC,FEW,0.00,0.0,WeatherDisplay:10.37,2013-10-11 08:16:00,
2013-10-11 10:21:00,68.2,65.5,29.95,ESE,105,5.8,5.8,91,0.00,OVC,FEW,0.00,0.0,WeatherDisplay:10.37,2013-10-11 08:21:00,
2013-10-11 10:26:00,68.3,65.6,29.95,SSE,162,11.5,11.5,91,0.00,OVC,FEW,0.00,0.0,WeatherDisplay:10.37,2013-10-11 08:26:00,
2013-10-11 10:31:00,68.5,65.8,29.95,ESE,116,2.0,2.0,91,0.00,OVC,FEW,0.00,0.0,WeatherDisplay:10.37,2013-10-11 08:31:00,
2013-10-11 10:36:00,68.7,66.0,29.95,East,99,4.6,4.6,91,0.00,OVC,FEW,0.00,0.0,WeatherDisplay:10.37,2013-10-11 08:36:00,
2013-10-11 10:41:00,68.7,66.0,29.95,ESE,111,6.9,6.9,91,0.00,OVC,FEW,0.00,0.0,WeatherDisplay:10.37,2013-10-11 08:41:00,
2013-10-11 10:46:00,68.8,66.1,29.95,SE,128,4.6,4.6,91,0.00,OVC,FEW,0.00,0.0,WeatherDisplay:10.37,2013-10-11 08:46:00,
2013-10-11 10:51:00,68.7,66.0,29.95,SE,126,6.9,6.9,91,0.00,OVC,FEW,0.00,0.0,WeatherDisplay:10.37,2013-10-11 08:51:00,
2013-10-11 10:56:00,68.8,66.1,29.95,East,92,5.0,5.0,91,0.00,OVC,FEW,0.00,0.0,WeatherDisplay:10.37,2013-10-11 08:56:00,
2013-10-11 11:01:00,68.8,66.1,29.95,SSW,200,6.0,6.0,91,0.00,OVC,FEW,0.00,0.0,WeatherDisplay:10.37,2013-10-11 09:01:00,
2013-10-11 11:06:00,68.9,66.5,29.95,ENE,61,4.0,4.0,92,0.00,OVC,FEW,0.00,0.0,WeatherDisplay:10.37,2013-10-11 09:06:00,
2013-10-11 11:11:00,69.0,66.6,29.95,ESE,117,3.5,3.5,92,0.00,OVC,FEW,0.00,0.0,WeatherDisplay:10.37,2013-10-11 09:11:00,
2013-10-11 11:16:00,69.0,66.6,29.96,SE,132,6.0,6.0,92,0.00,OVC,FEW,0.00,0.0,WeatherDisplay:10.37,2013-10-11 09:16:00,
2013-10-11 11:21:00,68.9,66.5,29.96,ESE,123,10.4,10.4,92,0.00,OVC,FEW,0.00,0.0,WeatherDisplay:10.37,2013-10-11 09:21:00,
2013-10-11 11:26:00,68.9,66.5,29.95,SSE,148,8.0,8.0,92,0.00,OVC,FEW,0.00,0.0,WeatherDisplay:10.37,2013-10-11 09:26:00,
2013-10-11 11:31:00,69.0,66.6,29.95,SSW,192,6.9,6.9,92,0.00,OVC,FEW,0.00,0.0,WeatherDisplay:10.37,2013-10-11 09:31:00,
2013-10-11 11:36:00,69.0,66.6,29.95,SSW,213,10.4,10.4,92,0.00,OVC,FEW,0.00,0.0,WeatherDisplay:10.37,2013-10-11 09:36:00,
2013-10-11 11:41:00,69.0,66.6,29.95,SSE,148,8.1,8.1,92,0.00,OVC,FEW,0.00,0.0,WeatherDisplay:10.37,2013-10-11 09:41:00,
2013-10-11 11:46:00,69.2,66.8,29.95,SSE,148,8.0,8.0,92,0.00,OVC,FEW,0.00,0.0,WeatherDisplay:10.37,2013-10-11 09:46:00,
2013-10-11 11:51:00,69.2,66.8,29.95,SE,127,8.1,8.1,92,0.00,OVC,FEW,0.00,0.0,WeatherDisplay:10.37,2013-10-11 09:51:00,
2013-10-11 11:56:00,69.3,66.9,29.96,ESE,115,11.5,11.5,92,0.00,OVC,FEW,0.00,0.0,WeatherDisplay:10.37,2013-10-11 09:56:00,
2013-10-11 12:01:00,69.5,67.1,29.95,ESE,109,8.1,8.1,92,0.00,OVC,FEW,0.00,0.0,WeatherDisplay:10.37,2013-10-11 10:01:00,
2013-10-11 12:06:00,69.5,67.1,29.96,ENE,75,11.5,11.5,92,0.00,OVC,FEW,0.00,0.0,WeatherDisplay:10.37,2013-10-11 10:06:00,
2013-10-11 12:11:00,69.4,67.0,29.95,ESE,123,8.1,8.1,92,0.00,OVC,FEW,0.00,0.0,WeatherDisplay:10.37,2013-10-11 10:11:00,
2013-10-11 12:16:00,69.4,67.0,29.95,SE,127,5.8,5.8,92,0.00,OVC,FEW,0.00,0.0,WeatherDisplay:10.37,2013-10-11 10:16:00,
2013-10-11 12:21:00,69.4,67.0,29.95,West,276,9.2,9.2,92,0.00,OVC,FEW,0.00,0.0,WeatherDisplay:10.37,2013-10-11 10:21:00,
2013-10-11 12:26:00,69.3,66.9,29.96,East,101,7.0,7.0,92,0.00,OVC,FEW,0.00,0.0,WeatherDisplay:10.37,2013-10-11 10:26:00,
2013-10-11 12:31:00,69.1,66.4,29.96,SSE,168,8.1,8.1,91,0.00,OVC,FEW,0.00,0.0,WeatherDisplay:10.37,2013-10-11 10:31:00,
2013-10-11 12:36:00,68.9,66.2,29.96,East,100,9.2,9.2,91,0.00,OVC,FEW,0.00,0.0,WeatherDisplay:10.37,2013-10-11 10:36:00,
2013-10-11 12:41:00,68.7,66.3,29.95,SSE,156,6.9,6.9,92,0.00,OVC,FEW,0.00,0.0,WeatherDisplay:10.37,2013-10-11 10:41:00,
2013-10-11 12:46:00,68.8,66.4,29.95,ENE,66,8.1,8.1,92,0.00,OVC,FEW,0.00,0.0,WeatherDisplay:10.37,2013-10-11 10:46:00,
2013-10-11 12:51:00,68.7,66.0,29.95,NNW,338,8.1,8.1,91,0.00,OVC,FEW,0.00,0.0,WeatherDisplay:10.37,2013-10-11 10:51:00,
2013-10-11 12:56:00,69.0,66.6,29.95,SE,132,8.1,8.1,92,0.00,OVC,FEW,0.00,0.0,WeatherDisplay:10.37,2013-10-11 10:56:00,
2013-10-11 13:01:00,69.5,66.8,29.95,ESE,112,9.2,9.2,91,0.00,OVC,FEW,0.00,0.0,WeatherDisplay:10.37,2013-10-11 11:01:00,
2013-10-11 13:06:00,70.0,67.3,29.94,East,94,6.0,6.0,91,0.00,OVC,FEW,0.00,0.0,WeatherDisplay:10.37,2013-10-11 11:06:00,
2013-10-11 13:11:00,70.2,67.1,29.95,SSW,206,8.1,8.1,90,0.00,OVC,FEW,0.00,0.0,WeatherDisplay:10.37,2013-10-11 11:11:00,
2013-10-11 13:16:00,70.5,67.4,29.94,South,184,6.9,6.9,90,0.00,OVC,FEW,0.00,0.0,WeatherDisplay:10.37,2013-10-11 11:16:00,
2013-10-11 13:21:00,70.7,67.3,29.94,SSE,167,7.0,7.0,89,0.00,OVC,FEW,0.00,0.0,WeatherDisplay:10.37,2013-10-11 11:21:00,
2013-10-11 13:26:00,70.9,67.2,29.94,ESE,120,7.0,7.6,88,0.00,OVC,FEW,0.01,0.0,WeatherDisplay:10.37,2013-10-11 11:26:00,
2013-10-11 13:31:00,70.7,66.6,29.94,SSW,206,15.0,15.0,87,0.01,RA,FEW,0.01,0.0,WeatherDisplay:10.37,2013-10-11 11:31:00,
2013-10-11 13:36:00,70.9,66.8,29.94,ESE,119,18.4,18.4,87,0.01,RA,FEW,0.01,0.0,WeatherDisplay:10.37,2013-10-11 11:36:00,
2013-10-11 13:41:00,71.3,67.2,29.94,SE,135,9.2,9.2,87,0.01,OVC,FEW,0.01,0.0,WeatherDisplay:10.37,2013-10-11 11:41:00,
2013-10-11 13:46:00,71.5,67.1,29.94,SE,127,11.5,11.5,86,0.01,OVC,FEW,0.01,0.0,WeatherDisplay:10.37,2013-10-11 11:46:00,
2013-10-11 13:51:00,71.5,66.8,29.94,East,93,13.8,13.8,85,0.01,OVC,FEW,0.01,0.0,WeatherDisplay:10.37,2013-10-11 11:51:00,
2013-10-11 13:56:00,71.4,66.7,29.94,SSE,162,13.8,13.8,85,0.01,OVC,FEW,0.01,0.0,WeatherDisplay:10.37,2013-10-11 11:56:00,
2013-10-11 14:01:00,71.5,66.8,29.94,ESE,122,11.5,11.5,85,0.01,OVC,FEW,0.01,0.0,WeatherDisplay:10.37,2013-10-11 12:01:00,
2013-10-11 14:06:00,71.4,66.7,29.94,SSW,201,13.8,13.8,85,0.01,OVC,FEW,0.01,0.0,WeatherDisplay:10.37,2013-10-11 12:06:00,
2013-10-11 14:11:00,71.2,66.5,29.94,SE,132,11.5,11.5,85,0.01,OVC,FEW,0.01,0.0,WeatherDisplay:10.37,2013-10-11 12:11:00,
2013-10-11 14:16:00,71.2,66.8,29.94,ENE,69,11.5,11.5,86,0.01,OVC,FEW,0.01,0.0,WeatherDisplay:10.37,2013-10-11 12:16:00,
2013-10-11 14:21:00,71.2,66.5,29.94,East,92,12.7,12.7,85,0.01,OVC,FEW,0.01,0.0,WeatherDisplay:10.37,2013-10-11 12:21:00,
2013-10-11 14:26:00,71.3,66.6,29.94,SE,128,10.4,10.4,85,0.01,OVC,FEW,0.01,0.0,WeatherDisplay:10.37,2013-10-11 12:26:00,
2013-10-11 14:31:00,71.5,66.8,29.94,SE,144,9.2,9.2,85,0.00,OVC,FEW,0.01,0.0,WeatherDisplay:10.37,2013-10-11 12:31:00,
2013-10-11 14:36:00,71.6,66.8,29.93,East,96,11.5,11.5,85,0.00,OVC,FEW,0.01,0.0,WeatherDisplay:10.37,2013-10-11 12:36:00,
2013-10-11 14:41:00,71.6,66.8,29.93,ESE,116,15.0,15.0,85,0.00,OVC,FEW,0.01,0.0,WeatherDisplay:10.37,2013-10-11 12:41:00,
2013-10-11 14:46:00,71.1,66.4,29.93,SE,132,18.4,18.4,85,0.00,OVC,FEW,0.01,0.0,WeatherDisplay:10.37,2013-10-11 12:46:00,
2013-10-11 14:51:00,71.1,66.4,29.94,East,94,11.5,11.5,85,0.00,OVC,FEW,0.01,0.0,WeatherDisplay:10.37,2013-10-11 12:51:00,
2013-10-11 14:56:00,70.9,66.2,29.93,South,186,16.1,16.1,85,0.00,OVC,FEW,0.01,0.0,WeatherDisplay:10.37,2013-10-11 12:56:00,
2013-10-11 15:02:00,71.1,66.7,29.93,SE,130,11.5,11.5,86,0.00,OVC,FEW,0.01,0.0,WeatherDisplay:10.37,2013-10-11 13:02:00,
2013-10-11 15:07:00,71.2,66.8,29.93,SE,132,12.7,12.7,86,0.00,OVC,FEW,0.01,0.0,WeatherDisplay:10.37,2013-10-11 13:07:00,
2013-10-11 15:12:00,71.2,66.8,29.93,East,93,12.7,12.7,86,0.00,OVC,FEW,0.01,0.0,WeatherDisplay:10.37,2013-10-11 13:12:00,
2013-10-11 15:17:00,71.4,67.0,29.93,East,98,12.7,12.7,86,0.00,OVC,FEW,0.01,0.0,WeatherDisplay:10.37,2013-10-11 13:17:00,
2013-10-11 15:22:00,71.5,67.1,29.93,ESE,121,11.5,11.5,86,0.00,OVC,FEW,0.01,0.0,WeatherDisplay:10.37,2013-10-11 13:22:00,
2013-10-11 15:27:00,71.5,67.1,29.94,East,101,12.7,12.7,86,0.00,OVC,FEW,0.01,0.0,WeatherDisplay:10.37,2013-10-11 13:27:00,
2013-10-11 15:32:00,71.7,67.6,29.94,SE,136,11.5,11.5,87,0.00,OVC,FEW,0.01,0.0,WeatherDisplay:10.37,2013-10-11 13:32:00,
2013-10-11 15:37:00,71.7,67.3,29.94,SE,142,12.7,12.7,86,0.00,OVC,FEW,0.01,0.0,WeatherDisplay:10.37,2013-10-11 13:37:00,
2013-10-11 15:42:00,71.6,67.2,29.94,ENE,76,11.5,11.5,86,0.00,OVC,FEW,0.01,0.0,WeatherDisplay:10.37,2013-10-11 13:42:00,
2013-10-11 15:47:00,71.4,67.0,29.94,SE,124,18.4,18.4,86,0.00,OVC,FEW,0.01,0.0,WeatherDisplay:10.37,2013-10-11 13:47:00,
2013-10-11 15:52:00,71.5,67.4,29.94,ESE,114,9.2,9.2,87,0.00,OVC,FEW,0.01,0.0,WeatherDisplay:10.37,2013-10-11 13:52:00,
2013-10-11 15:57:00,71.8,67.7,29.94,SE,127,11.5,11.5,87,0.00,OVC,FEW,0.01,0.0,WeatherDisplay:10.37,2013-10-11 13:57:00,
2013-10-11 16:02:00,71.8,67.4,29.94,SSE,161,10.0,10.0,86,0.00,OVC,FEW,0.01,0.0,WeatherDisplay:10.37,2013-10-11 14:02:00,
2013-10-11 16:07:00,72.1,67.7,29.94,South,188,5.8,5.8,86,0.00,OVC,FEW,0.01,0.0,WeatherDisplay:10.37,2013-10-11 14:07:00,
2013-10-11 16:12:00,72.4,67.6,29.95,East,83,9.2,9.2,85,0.00,OVC,FEW,0.01,0.0,WeatherDisplay:10.37,2013-10-11 14:12:00,
2013-10-11 16:17:00,72.3,67.5,29.95,ENE,67,4.6,4.6,85,0.00,OVC,FEW,0.01,0.0,WeatherDisplay:10.37,2013-10-11 14:17:00,
2013-10-11 16:22:00,72.6,67.8,29.95,SE,140,6.0,6.0,85,0.00,OVC,FEW,0.01,0.0,WeatherDisplay:10.37,2013-10-11 14:22:00,
2013-10-11 16:27:00,72.8,67.7,29.95,ESE,112,4.6,4.6,84,0.00,OVC,FEW,0.01,0.0,WeatherDisplay:10.37,2013-10-11 14:27:00,
2013-10-11 16:32:00,72.9,67.8,29.95,SE,128,6.9,6.9,84,0.00,OVC,FEW,0.01,0.0,WeatherDisplay:10.37,2013-10-11 14:32:00,
2013-10-11 16:37:00,73.0,67.5,29.95,ESE,123,6.9,6.9,83,0.00,OVC,FEW,0.01,0.0,WeatherDisplay:10.37,2013-10-11 14:37:00,
2013-10-11 16:42:00,73.1,67.6,29.96,SW,232,3.5,3.5,83,0.00,OVC,FEW,0.01,0.0,WeatherDisplay:10.37,2013-10-11 14:42:00,
2013-10-11 16:47:00,73.2,67.4,29.96,SSW,211,6.9,6.9,82,0.00,OVC,FEW,0.01,0.0,WeatherDisplay:10.37,2013-10-11 14:47:00,
2013-10-11 16:52:00,73.0,67.2,29.95,South,185,4.6,4.6,82,0.00,OVC,FEW,0.01,0.0,WeatherDisplay:10.37,2013-10-11 14:52:00,
2013-10-11 16:57:00,72.6,66.4,29.95,SE,132,4.6,4.6,81,0.00,OVC,FEW,0.01,0.0,WeatherDisplay:10.37,2013-10-11 14:57:00,
2013-10-11 17:02:00,72.7,66.2,29.96,SE,142,3.0,3.0,80,0.00,OVC,FEW,0.01,0.0,WeatherDisplay:10.37,2013-10-11 15:02:00,
2013-10-11 17:07:00,72.5,66.0,29.96,SSE,157,6.9,6.9,80,0.00,OVC,FEW,0.01,0.0,WeatherDisplay:10.37,2013-10-11 15:07:00,
2013-10-11 17:12:00,72.5,65.6,29.96,South,171,5.8,5.8,79,0.00,OVC,FEW,0.01,0.0,WeatherDisplay:10.37,2013-10-11 15:12:00,
2013-10-11 17:17:00,72.4,65.9,29.97,SE,138,9.2,9.2,80,0.00,OVC,FEW,0.01,0.0,WeatherDisplay:10.37,2013-10-11 15:17:00,
2013-10-11 17:22:00,72.2,66.0,29.97,SE,138,9.2,9.2,81,0.00,OVC,FEW,0.01,0.0,WeatherDisplay:10.37,2013-10-11 15:22:00,
2013-10-11 17:27:00,71.7,65.6,29.97,SE,138,5.8,5.8,81,0.00,OVC,FEW,0.01,0.0,WeatherDisplay:10.37,2013-10-11 15:27:00,
2013-10-11 17:32:00,71.3,65.5,29.97,SSE,156,4.6,4.6,82,0.00,OVC,FEW,0.01,0.0,WeatherDisplay:10.37,2013-10-11 15:32:00,
2013-10-11 17:37:00,71.1,65.7,29.97,East,100,3.5,3.5,83,0.00,OVC,FEW,0.01,0.0,WeatherDisplay:10.37,2013-10-11 15:37:00,
2013-10-11 17:42:00,71.1,66.0,29.97,East,100,1.2,0.0,84,0.00,OVC,FEW,0.01,0.0,WeatherDisplay:10.37,2013-10-11 15:42:00,
2013-10-11 17:47:00,71.1,66.4,29.98,NE,36,3.0,3.0,85,0.00,OVC,FEW,0.01,0.0,WeatherDisplay:10.37,2013-10-11 15:47:00,
2013-10-11 17:52:00,71.1,66.4,29.98,NW,326,0.0,0.7,85,0.00,OVC,FEW,0.01,0.0,WeatherDisplay:10.37,2013-10-11 15:52:00,
2013-10-11 17:57:00,70.9,66.2,29.98,NW,326,2.3,2.3,85,0.00,OVC,FEW,0.01,0.0,WeatherDisplay:10.37,2013-10-11 15:57:00,
2013-10-11 18:02:00,70.8,66.1,29.98,NW,326,2.3,2.3,85,0.00,OVC,FEW,0.01,0.0,WeatherDisplay:10.37,2013-10-11 16:02:00,
2013-10-11 18:07:00,70.7,66.3,29.99,North,355,3.5,3.5,86,0.00,OVC,FEW,0.01,0.0,WeatherDisplay:10.37,2013-10-11 16:07:00,
2013-10-11 18:12:00,70.5,66.1,29.99,SE,126,3.5,3.5,86,0.00,OVC,FEW,0.01,0.0,WeatherDisplay:10.37,2013-10-11 16:12:00,
2013-10-11 18:17:00,70.2,66.1,29.99,ESE,103,3.5,3.5,87,0.00,OVC,FEW,0.01,0.0,WeatherDisplay:10.37,2013-10-11 16:17:00,
2013-10-11 18:22:00,69.9,65.9,29.99,ESE,105,3.5,3.5,87,0.00,OVC,FEW,0.01,0.0,WeatherDisplay:10.37,2013-10-11 16:22:00,
2013-10-11 18:27:00,69.6,65.9,30.00,SE,136,8.1,8.1,88,0.00,OVC,FEW,0.01,0.0,WeatherDisplay:10.37,2013-10-11 16:27:00,
2013-10-11 18:32:00,69.4,65.7,30.00,ESE,107,5.8,5.8,88,0.00,OVC,FEW,0.01,0.0,WeatherDisplay:10.37,2013-10-11 16:32:00,
2013-10-11 18:37:00,69.2,65.5,30.00,ESE,104,3.5,3.5,88,0.00,OVC,FEW,0.01,0.0,WeatherDisplay:10.37,2013-10-11 16:37:00,
2013-10-11 18:42:00,69.1,65.7,30.00,ESE,104,2.3,2.3,89,0.00,OVC,FEW,0.01,0.0,WeatherDisplay:10.37,2013-10-11 16:42:00,
2013-10-11 18:47:00,69.1,65.7,30.00,ESE,104,1.2,1.2,89,0.00,OVC,FEW,0.01,0.0,WeatherDisplay:10.37,2013-10-11 16:47:00,
2013-10-11 18:52:00,69.1,65.7,30.00,SSE,164,6.9,6.9,89,0.00,OVC,FEW,0.01,0.0,WeatherDisplay:10.37,2013-10-11 16:52:00,
2013-10-11 18:57:00,69.1,65.7,30.00,SSE,164,2.3,2.3,89,0.00,OVC,FEW,0.01,0.0,WeatherDisplay:10.37,2013-10-11 16:57:00,
2013-10-11 19:02:00,69.0,65.9,30.01,SE,131,5.8,5.8,90,0.00,CLR,FEW,0.01,0.0,WeatherDisplay:10.37,2013-10-11 17:02:00,
2013-10-11 19:07:00,68.9,65.8,30.01,ESE,114,5.0,5.0,90,0.00,CLR,FEW,0.01,0.0,WeatherDisplay:10.37,2013-10-11 17:07:00,
2013-10-11 19:12:00,68.8,65.7,30.01,SE,126,5.8,5.8,90,0.00,CLR,FEW,0.01,0.0,WeatherDisplay:10.37,2013-10-11 17:12:00,
2013-10-11 19:17:00,68.8,65.7,30.01,SE,143,8.1,8.1,90,0.00,CLR,FEW,0.01,0.0,WeatherDisplay:10.37,2013-10-11 17:17:00,
2013-10-11 19:22:00,68.7,65.6,30.01,SE,135,5.8,5.8,90,0.00,CLR,FEW,0.01,0.0,WeatherDisplay:10.37,2013-10-11 17:22:00,
2013-10-11 19:27:00,68.6,65.5,30.01,SSE,154,5.8,5.8,90,0.00,CLR,FEW,0.01,0.0,WeatherDisplay:10.37,2013-10-11 17:27:00,
2013-10-11 19:32:00,68.5,65.8,30.01,SE,127,6.9,6.9,91,0.00,CLR,FEW,0.01,0.0,WeatherDisplay:10.37,2013-10-11 17:32:00,
2013-10-11 19:37:00,68.3,65.3,30.02,ESE,118,8.1,8.1,90,0.00,CLR,FEW,0.01,0.0,WeatherDisplay:10.37,2013-10-11 17:37:00,
2013-10-11 19:42:00,68.1,65.1,30.02,SSE,166,11.5,11.5,90,0.00,CLR,FEW,0.01,0.0,WeatherDisplay:10.37,2013-10-11 17:42:00,
2013-10-11 19:47:00,68.0,65.0,30.02,SSE,147,11.5,11.5,90,0.00,CLR,FEW,0.01,0.0,WeatherDisplay:10.37,2013-10-11 17:47:00,
2013-10-11 19:52:00,67.9,65.2,30.01,South,178,4.6,4.6,91,0.00,CLR,FEW,0.01,0.0,WeatherDisplay:10.37,2013-10-11 17:52:00,
2013-10-11 19:57:00,67.8,64.8,30.02,South,190,8.0,8.0,90,0.00,CLR,FEW,0.01,0.0,WeatherDisplay:10.37,2013-10-11 17:57:00,
2013-10-11 20:02:00,67.7,65.0,30.02,SSE,154,6.0,6.0,91,0.00,CLR,FEW,0.01,0.0,WeatherDisplay:10.37,2013-10-11 18:02:00,
2013-10-11 20:07:00,67.8,65.1,30.02,SSW,200,6.9,6.9,91,0.00,CLR,FEW,0.01,0.0,WeatherDisplay:10.37,2013-10-11 18:07:00,
2013-10-11 20:12:00,67.7,65.0,30.02,SSW,192,4.6,4.6,91,0.00,CLR,FEW,0.01,0.0,WeatherDisplay:10.37,2013-10-11 18:12:00,
2013-10-11 20:17:00,67.7,65.0,30.02,SSE,156,5.8,5.8,91,0.00,CLR,FEW,0.01,0.0,WeatherDisplay:10.37,2013-10-11 18:17:00,
2013-10-11 20:22:00,67.6,64.9,30.02,SE,128,10.4,10.4,91,0.00,CLR,FEW,0.01,0.0,WeatherDisplay:10.37,2013-10-11 18:22:00,
2013-10-11 20:27:00,67.7,65.0,30.02,SSE,165,6.9,6.9,91,0.00,CLR,FEW,0.01,0.0,WeatherDisplay:10.37,2013-10-11 18:27:00,
2013-10-11 20:32:00,67.7,65.0,30.03,South,190,4.6,4.6,91,0.00,CLR,FEW,0.01,0.0,WeatherDisplay:10.37,2013-10-11 18:32:00,
2013-10-11 20:37:00,67.7,65.0,30.03,SSE,151,6.9,6.9,91,0.00,CLR,FEW,0.01,0.0,WeatherDisplay:10.37,2013-10-11 18:37:00,
2013-10-11 20:42:00,67.7,65.0,30.03,South,181,6.9,6.9,91,0.00,CLR,FEW,0.01,0.0,WeatherDisplay:10.37,2013-10-11 18:42:00,
2013-10-11 20:47:00,67.8,65.1,30.03,SSE,147,6.9,6.9,91,0.00,CLR,FEW,0.01,0.0,WeatherDisplay:10.37,2013-10-11 18:47:00,
2013-10-11 20:52:00,67.8,65.1,30.03,SE,136,5.8,5.8,91,0.00,CLR,FEW,0.01,0.0,WeatherDisplay:10.37,2013-10-11 18:52:00,
2013-10-11 20:57:00,67.8,65.1,30.04,ESE,113,5.8,5.8,91,0.00,CLR,FEW,0.01,0.0,WeatherDisplay:10.37,2013-10-11 18:57:00,
2013-10-11 21:02:00,67.8,65.1,30.04,SSE,165,5.0,5.0,91,0.00,CLR,FEW,0.01,0.0,WeatherDisplay:10.37,2013-10-11 19:02:00,
2013-10-11 21:07:00,67.8,65.1,30.04,ENE,72,6.0,6.0,91,0.00,CLR,FEW,0.01,0.0,WeatherDisplay:10.37,2013-10-11 19:07:00,
2013-10-11 21:12:00,68.0,65.3,30.04,South,174,5.8,5.8,91,0.00,CLR,FEW,0.01,0.0,WeatherDisplay:10.37,2013-10-11 19:12:00,
2013-10-11 21:17:00,68.0,65.3,30.04,SSE,162,5.8,5.8,91,0.00,CLR,FEW,0.01,0.0,WeatherDisplay:10.37,2013-10-11 19:17:00,
2013-10-11 21:22:00,68.0,65.3,30.04,South,179,6.9,6.9,91,0.00,CLR,FEW,0.01,0.0,WeatherDisplay:10.37,2013-10-11 19:22:00,
2013-10-11 21:27:00,68.1,65.4,30.04,South,175,3.5,3.5,91,0.00,CLR,FEW,0.01,0.0,WeatherDisplay:10.37,2013-10-11 19:27:00,
2013-10-11 21:32:00,68.0,65.3,30.04,South,175,4.6,4.6,91,0.00,CLR,FEW,0.01,0.0,WeatherDisplay:10.37,2013-10-11 19:32:00,
2013-10-11 21:37:00,68.1,65.4,30.05,SSE,155,3.5,3.5,91,0.00,CLR,FEW,0.01,0.0,WeatherDisplay:10.37,2013-10-11 19:37:00,
2013-10-11 21:42:00,68.1,65.4,30.05,SSE,150,4.0,4.0,91,0.00,CLR,FEW,0.01,0.0,WeatherDisplay:10.37,2013-10-11 19:42:00,
2013-10-11 21:47:00,68.0,65.3,30.05,SE,133,4.6,4.6,91,0.00,CLR,FEW,0.01,0.0,WeatherDisplay:10.37,2013-10-11 19:47:00,
2013-10-11 21:52:00,68.0,65.3,30.05,SE,145,4.0,4.3,91,0.00,CLR,FEW,0.01,0.0,WeatherDisplay:10.37,2013-10-11 19:52:00,
2013-10-11 21:57:00,68.0,65.3,30.05,SE,132,9.2,9.2,91,0.00,CLR,FEW,0.01,0.0,WeatherDisplay:10.37,2013-10-11 19:57:00,
2013-10-11 22:02:00,68.0,65.3,30.05,SE,132,4.6,4.6,91,0.00,CLR,FEW,0.01,0.0,WeatherDisplay:10.37,2013-10-11 20:02:00,
2013-10-11 22:07:00,68.1,65.4,30.05,SE,130,5.8,5.8,91,0.00,CLR,FEW,0.01,0.0,WeatherDisplay:10.37,2013-10-11 20:07:00,
2013-10-11 22:12:00,68.1,65.4,30.05,SE,142,4.6,4.6,91,0.00,CLR,FEW,0.01,0.0,WeatherDisplay:10.37,2013-10-11 20:12:00,
2013-10-11 22:17:00,68.0,65.3,30.05,SSE,165,4.6,4.6,91,0.00,CLR,FEW,0.01,0.0,WeatherDisplay:10.37,2013-10-11 20:17:00,
2013-10-11 22:22:00,67.9,65.2,30.06,SSE,165,3.5,3.5,91,0.00,CLR,FEW,0.01,0.0,WeatherDisplay:10.37,2013-10-11 20:22:00,
2013-10-11 22:27:00,67.8,65.4,30.06,SSE,165,4.6,4.6,92,0.00,CLR,FEW,0.01,0.0,WeatherDisplay:10.37,2013-10-11 20:27:00,
2013-10-11 22:32:00,67.5,64.8,30.06,SSE,165,7.0,7.0,91,0.00,CLR,FEW,0.01,0.0,WeatherDisplay:10.37,2013-10-11 20:32:00,
2013-10-11 22:37:00,67.6,64.9,30.06,SSE,147,3.5,3.5,91,0.00,CLR,FEW,0.01,0.0,WeatherDisplay:10.37,2013-10-11 20:37:00,
2013-10-11 22:42:00,67.7,65.0,30.06,SSE,147,3.5,3.5,91,0.00,CLR,FEW,0.01,0.0,WeatherDisplay:10.37,2013-10-11 20:42:00,
2013-10-11 22:47:00,67.7,65.0,30.06,SSE,147,3.5,3.5,91,0.00,CLR,FEW,0.01,0.0,WeatherDisplay:10.37,2013-10-11 20:47:00,
2013-10-11 22:52:00,67.8,65.1,30.06,SE,141,5.8,5.8,91,0.00,CLR,FEW,0.01,0.0,WeatherDisplay:10.37,2013-10-11 20:52:00,
2013-10-11 22:57:00,67.7,65.0,30.06,ESE,119,5.8,5.8,91,0.00,CLR,FEW,0.01,0.0,WeatherDisplay:10.37,2013-10-11 20:57:00,
2013-10-11 23:02:00,67.7,65.0,30.06,SE,140,6.9,6.9,91,0.00,CLR,FEW,0.01,0.0,WeatherDisplay:10.37,2013-10-11 21:02:00,
2013-10-11 23:07:00,67.7,65.0,30.07,South,169,8.0,8.0,91,0.00,CLR,FEW,0.01,0.0,WeatherDisplay:10.37,2013-10-11 21:07:00,
2013-10-11 23:12:00,67.7,65.3,30.07,ESE,119,5.0,5.0,92,0.00,CLR,FEW,0.01,0.0,WeatherDisplay:10.37,2013-10-11 21:12:00,
2013-10-11 23:17:00,67.8,65.4,30.07,SE,124,8.1,8.1,92,0.00,CLR,FEW,0.01,0.0,WeatherDisplay:10.37,2013-10-11 21:17:00,
2013-10-11 23:22:00,67.8,65.4,30.07,ESE,121,4.6,4.6,92,0.00,CLR,FEW,0.01,0.0,WeatherDisplay:10.37,2013-10-11 21:22:00,
2013-10-11 23:27:00,67.9,65.5,30.07,ESE,123,4.0,4.0,92,0.00,CLR,FEW,0.01,0.0,WeatherDisplay:10.37,2013-10-11 21:27:00,
2013-10-11 23:32:00,67.9,65.5,30.07,SSE,164,3.5,3.5,92,0.00,CLR,FEW,0.01,0.0,WeatherDisplay:10.37,2013-10-11 21:32:00,
2013-10-11 23:37:00,67.9,65.5,30.07,SSE,163,1.2,1.2,92,0.00,CLR,FEW,0.01,0.0,WeatherDisplay:10.37,2013-10-11 21:37:00,
2013-10-11 23:42:00,67.9,65.5,30.07,ESE,115,6.9,6.9,92,0.00,CLR,FEW,0.01,0.0,WeatherDisplay:10.37,2013-10-11 21:42:00,
2013-10-11 23:47:00,67.9,65.5,30.07,WSW,246,5.0,5.0,92,0.00,CLR,FEW,0.01,0.0,WeatherDisplay:10.37,2013-10-11 21:47:00,
2013-10-11 23:52:00,67.8,65.4,30.07,WSW,241,1.2,1.2,92,0.00,CLR,FEW,0.01,0.0,WeatherDisplay:10.37,2013-10-11 21:52:00,
2013-10-11 23:57:00,67.8,65.4,30.07,WSW,241,2.3,2.3,92,0.00,CLR,FEW,0.01,0.0,WeatherDisplay:10.37,2013-10-11 21:57:00,